Regional Weather Roundup
Issued by NWS

Home | Current Version | Previous Version | Graphics & Text | Print | Product List | Glossary On
Versions: 1 2 3 4 5 6 7 8 9 10 11 12 13 14 15 16 17 18 19 20 21 22 23 24 25 26 27 28 29 30 31 32 33 34 35 36 37 38 39 40 41 42 43 44 45 46 47 48 49 50
000
ASUS43 KMKX 180121
RWRWI

WISCONSIN REGIONAL WEATHER ROUNDUP
NATIONAL WEATHER SERVICE MILWAUKEE/SULLIVAN WI
700 PM CST TUE JAN 17 2017

NOTE: "FAIR" INDICATES FEW OR NO CLOUDS BELOW 12,000 FEET WITH NO
SIGNIFICANT WEATHER AND/OR OBSTRUCTIONS TO VISIBILITY.

WIZ001-002-006>008-014>016-023>028-180200-
NORTHWEST WISCONSIN

CITY           SKY/WX    TMP DP  RH WIND       PRES   REMARKS
SUPERIOR ARPT  PTCLDY    23  22  96 SW3       29.91F
ASHLAND        CLEAR     25  22  88 CALM      29.92S
HAYWARD        CLEAR     25  20  81 CALM      29.92S
SIREN          PTCLDY    29  26  89 W9        29.96R WCI  21
CUMBERLAND     CLEAR     30  27  86 W6        29.94S WCI  24
RICE LAKE      CLEAR     31  28  85 SW3       29.96R
CHETEK         CLEAR     30  29  98 CALM      29.95R FOG
LADYSMITH      CLEAR     30  28  92 CALM      29.93F
EAU CLAIRE     CLEAR     31  30  96 SW5       29.95F FOG     WCI  26
MENOMONIE      CLEAR     32  30  93 SW8       29.97S WCI  25
NEW RICHMOND   CLOUDY    32  32 100 W9        29.97F FOG     WCI  24
OSCEOLA        CLOUDY    32  32 100 SW8       30.00S WCI  25
$$

WIZ003>005-009-010-017-018-180200-
NORTH CENTRAL WISCONSIN

CITY           SKY/WX    TMP DP  RH WIND       PRES   REMARKS
MANITOWISH WTR NOT AVBL
ARBOR VITAE    CLEAR     27  25  94 CALM      29.89F
WOODRUFF       CLEAR     27  25  94 CALM      29.89F
RHINELANDER    PTCLDY    35  32  88 CALM      29.89F
EAGLE RIVER    CLEAR     29  29 100 CALM      29.88F
LAND O LAKES   CLEAR     26  24  92 CALM      29.90S
PHILLIPS         N/A     25  25 100 CALM      29.89F FOG
TOMAHAWK       PTCLDY    30  28  94 CALM      29.91S
MEDFORD        CLEAR     33  32  95 W3        29.91S
MERRILL        CLOUDY    35  35 100 CALM        N/A
$$

WIZ029-030-035-036-043>047-180200-
CENTRAL WISCONSIN

CITY           SKY/WX    TMP DP  RH WIND       PRES   REMARKS
WAUSAU         CLOUDY    34  34 100 CALM      29.90S
MOSINEE        CLOUDY    34  34 100 W3        29.92S
MARSHFIELD     MOCLDY    35  33  92 NW7       29.92R WCI  29
STEVENS POINT  CLOUDY    33  33 100 CALM      29.93S FOG
WAUPACA        CLOUDY    36  34  93 CALM      29.94R FOG
WAUTOMA        CLOUDY    34  33  96 W5        29.95R FOG     WCI  30
WISC RAPIDS    CLOUDY    34  34 100 SW3       29.95S FOG
CAMP DOUGLAS   CLOUDY    34  34 100 W5        29.95S FOG     WCI  30
$$

WIZ011>013-019>022-031-037>040-048>050-180200-
NORTHEAST WISCONSIN

CITY           SKY/WX    TMP DP  RH WIND       PRES   REMARKS
ANTIGO         CLOUDY    33  33 100 CALM      29.90S FOG
SHAWANO        FOG       35  33  94 CALM      29.93R VSB 1
OCONTO         CLOUDY    33  32  98 CALM      29.92
STURGEON BAY   FOG       32  32 100 N9        29.91R VSB 1/2 WCI  24
GREEN BAY      CLOUDY    35  35 100 NW5       29.93R FOG     WCI  31
MANITOWOC      CLOUDY    34  33  96 MISG      29.92R FOG
APPLETON       CLOUDY    34  34 100 NW6       29.91R FOG     WCI  29
CLINTONVILLE   CLOUDY    34  32  93 W5        29.93R FOG     WCI  30
OSHKOSH        FOG       33  32  96 NW6       29.92S VSB 3/4 WCI  28
$$

WIZ032>034-041-042-053>061-180200-
SOUTHWEST WISCONSIN

CITY           SKY/WX    TMP DP  RH WIND       PRES   REMARKS
LA CROSSE      CLOUDY    36  34  92 CALM      29.99R
SPARTA         CLOUDY    33  33 100 CALM      29.98S FOG
VIROQUA        CLOUDY    32  32 100 NW7       29.97R VSB 1/2 WCI  26
BOSCOBEL       CLOUDY    34  32  92 SW5       30.00R WCI  30
PRAIRIE DU CHI CLOUDY    33  33  96 CALM      30.01R FOG
PLATTEVILLE    CLOUDY    33  33 100 W9        29.99R WCI  26
$$

WIZ056-057-062-063-064-067-068-180200-
SOUTH CENTRAL WISCONSIN

CITY           SKY/WX    TMP DP  RH WIND       PRES   REMARKS
REEDSBURG      CLOUDY    33  33 100 NW3       29.95  FOG
BARABOO/DELLS  FOG       33  33  99 NW5       29.95R VSB 3/4 WCI  28
LONE ROCK      CLOUDY    33  32  96 W6        29.99R FOG     WCI  28
MINERAL POINT  CLOUDY    34  34 100 W8        29.96R WCI  27
MADISON        DRIZZLE   34  33  96 MISG      29.96R
MIDDLETON      CLOUDY    35  35 100 NW6       29.95S WCI  30
WATERTOWN      MIX PCPN  33  33 100 W3        29.93S
MONROE         LGT SNOW  32  32 100 W10       29.95S WCI  24
JANESVILLE     CLOUDY    36  36 100 W7        29.95R FOG     WCI  30
$$

WIZ051-052-058>065-066-070>072-180200-
SOUTHEAST WISCONSIN

CITY           SKY/WX    TMP DP  RH WIND       PRES   REMARKS
MILWAUKEE      LGT RAIN  36  33  89 W8        29.93S FOG     WCI  30
WAUKESHA       CLOUDY    32  32 100 W8        29.94R FOG     WCI  25
MILWAUKEE/TIMM CLOUDY    34  32  93 W5        29.94R FOG     WCI  30
RACINE         LGT RAIN  35  33  92 W7        29.96R FOG     WCI  29
KENOSHA        CLOUDY    35  34  96 W8        29.94R FOG     WCI  29
FOND DU LAC    CLOUDY    34  31  88 NW6       29.92S FOG     WCI  29
SHEBOYGAN      LGT RAIN  34  32  92 NW6       29.91R FOG     WCI  29
WEST BEND      CLOUDY    32  32 100 W6        29.92S FOG     WCI  26
JUNEAU         DRIZZLE   33  32  99 W3        29.94S
$$

LSZ147-162-180200-
LAKE SUPERIOR

STATION/POSITION TIME  TEMP    WIND        PRES    WAVE
                       AIR SEA DIR/SP/G            HT/PER
                 (UTC) (F)     (DEG/KT/KT) (MB)    (FT/S)
DEVILS ISLAND    0000   31     180/  7/  8 1013.7F
PORT WING        0030   25     150/  2/  4 1012.9S
SAXON HARBOR     0030   25     190/  3/  4 1012.9S
$$

LMZ867-665-643>646-180200-
LAKE MICHIGAN

STATION/POSITION TIME  TEMP    WIND        PRES    WAVE
                       AIR SEA DIR/SP/G            HT/PER
                 (UTC) (F)     (DEG/KT/KT) (MB)    (FT/S)
NORTHPORT PIER   0040   33      10/  6/  8 1012.5S
SISTER BAY       0035   32      30/  7/  9   N/A
ALGOMA LAKESHORE 2238          330/  9/ 12   N/A
KEWAUNEE LAKESHO 0054   33     320/  6/  9 1012.2R
SHEBOYGAN LAKESH 0100   34     290/  8/ 10 1013.2R
PORT WASHINGTON  0040   35     280/  5/  8 1014.2R
MILWAUKEE LAKESH 0100   35     270/  9/ 10   N/A
KENOSHA   LAKESH 0000   36     280/  8/ 13 1013.9
$$

TC  - TEMPERATURE IN CELSIUS
VSB - VISIBILITY IN STATUTE MILES
WCI - WIND CHILL INDEX
HX  - HEAT INDEX





USA.gov is the U.S. government's official web portal to all federal, state and local government web resources and services.